K5WXL Weather Reports


time (UTC)temp
F
wind
direction
speed
knots
gust
knots
rain 1hr
in
rain 24hr
in
rain mn
in
humidity
%
barometer
mb
20260507023026 54 41 4.3 6.1 0.00 0.00 0.00 70 1017.4
20260507021515 55 47 5.2 6.1 0.00 0.00 0.00 69 1017.1
20260507020034 56 45 4.3 5.2 0.00 0.00 0.00 67 1016.6
20260507014525 57 44 4.3 5.2 0.00 0.00 0.00 66 1016.6
20260507013027 58 42 4.3 6.1 0.00 0.00 0.00 63 1016.4
20260507011540 60 40 5.2 7.0 0.00 0.00 0.00 59 1016.2
20260507010018 61 51 5.2 8.7 0.00 0.00 0.00 56 1016.0
20260507004523 63 35 6.1 11.3 0.00 0.00 0.00 53 1015.8
20260507003025 64 36 9.6 13.0 0.00 0.00 0.00 51 1015.8
20260507001529 65 34 8.7 13.9 0.00 0.00 0.00 49 1015.6
20260507000016 65 357 9.6 14.8 0.00 0.00 0.00 49 1015.6
20260506234516 66 12 8.7 15.6 0.00 0.00 0.00 48 1015.4
20260506233005 66 61 9.6 16.5 0.00 0.00 0.00 49 1015.2
20260506231509 66 19 10.4 16.5 0.00 0.00 0.00 48 1015.0
20260506230014 66 39 9.6 16.5 0.00 0.00 0.00 47 1014.8
20260506224518 66 32 7.8 14.8 0.00 0.00 0.00 47 1014.7
20260506223027 67 69 9.6 13.9 0.00 0.00 0.00 48 1014.8
20260506221505 66 25 11.3 16.5 0.00 0.00 0.00 49 1014.7
20260506220012 66 17 7.0 15.6 0.00 0.00 0.00 48 1014.8
20260506214515 66 55 8.7 15.6 0.00 0.00 0.00 48 1014.9
20260506213018 66 49 11.3 17.4 0.00 0.00 0.00 49 1014.9
20260506211522 66 53 11.3 17.4 0.00 0.00 0.00 50 1015.1
20260506210009 65 58 8.7 18.2 0.00 0.00 0.00 51 1015.2
20260506204513 65 31 10.4 15.6 0.00 0.00 0.00 51 1015.3
20260506203018 64 15 7.8 17.4 0.00 0.00 0.00 52 1015.4
20260506201522 64 36 8.7 14.8 0.00 0.00 0.00 54 1015.5
20260506200023 64 68 10.4 17.4 0.00 0.00 0.00 52 1015.5
20260506194511 63 19 8.7 17.4 0.00 0.00 0.00 55 1015.4
20260506193022 62 52 12.2 17.4 0.00 0.00 0.00 56 1015.4
20260506191520 61 25 11.3 18.2 0.00 0.00 0.00 56 1015.6
20260506190029 61 32 12.2 20.9 0.00 0.00 0.00 57 1015.7
20260506184534 60 33 12.2 19.1 0.00 0.00 0.00 58 1015.9
20260506183012 59 42 10.4 19.1 0.00 0.00 0.00 61 1016.0
20260506181523 58 23 12.2 19.1 0.00 0.00 0.00 62 1016.0
20260506180025 57 60 13.0 20.0 0.00 0.00 0.00 62 1016.2
20260506174530 56 56 13.0 17.4 0.00 0.00 0.00 65 1016.6
20260506173024 55 29 9.6 15.6 0.00 0.00 0.00 64 1017.0
20260506171515 56 85 10.4 15.6 0.00 0.00 0.00 65 1017.2
20260506170025 55 20 10.4 15.6 0.00 0.00 0.00 66 1017.5
20260506164541 55 68 8.7 16.5 0.00 0.00 0.00 64 1017.6
20260506163024 55 61 11.3 16.5 0.00 0.00 0.00 64 1017.6
20260506161524 54 53 10.4 13.9 0.00 0.00 0.00 67 1017.6
20260506160017 53 46 11.3 19.1 0.00 0.00 0.00 66 1017.5
20260506154521 53 60 12.2 18.2 0.00 0.00 0.00 66 1017.5
20260506153026 53 51 13.0 20.9 0.00 0.00 0.00 65 1017.4
20260506151508 53 32 13.0 20.9 0.00 0.00 0.00 66 1017.4
20260506150016 52 51 13.0 18.2 0.00 0.00 0.00 69 1016.9
20260506144523 51 50 12.2 20.0 0.00 0.00 0.00 70 1016.5
20260506143024 51 56 13.0 20.9 0.00 0.00 0.00 70 1016.3
20260506141530 51 53 12.2 21.7 0.00 0.00 0.00 70 1016.1
20260506140011 51 26 13.9 21.7 0.00 0.00 0.00 71 1015.9
20260506134516 51 45 14.8 20.9 0.00 0.00 0.00 72 1015.6
20260506133019 50 20 13.0 20.9 0.00 0.00 0.00 73 1015.7
20260506131524 50 17 13.9 21.7 0.00 0.00 0.00 74 1015.5
20260506130024 49 19 12.2 19.1 0.00 0.00 0.00 74 1015.5
20260506124511 49 22 11.3 19.1 0.00 0.00 0.00 73 1015.3
20260506123020 49 44 9.6 15.6 0.00 0.00 0.00 73 1015.2
20260506121524 49 58 13.0 19.1 0.00 0.00 0.00 72 1014.9
20260506120048 49 20 9.6 19.1 0.00 0.00 0.00 72 1015.1
20260506114526 49 28 11.3 15.6 0.00 0.00 0.00 72 1014.8
20260506113016 49 46 13.0 17.4 0.00 0.00 0.00 71 1014.5
20260506111519 49 32 8.7 17.4 0.00 0.00 0.00 71 1014.2
20260506110025 49 9 13.9 18.2 0.00 0.00 0.00 70 1014.4
20260506104536 49 27 11.3 19.1 0.00 0.00 0.00 69 1014.4
20260506103038 50 345 10.4 14.8 0.00 0.00 0.00 69 1014.7
20260506101516 50 28 13.9 20.9 0.00 0.00 0.00 68 1014.1
20260506100019 50 6 8.7 15.6 0.00 0.00 0.00 69 1014.1
20260506094525 50 34 13.0 18.2 0.00 0.00 0.00 68 1013.8
20260506093028 50 33 8.7 13.0 0.00 0.00 0.00 70 1014.3
20260506091528 50 32 10.4 13.9 0.00 0.00 0.00 70 1014.0
20260506090019 50 30 7.8 13.9 0.00 0.00 0.00 72 1014.0
20260506084549 50 33 7.0 15.6 0.00 0.00 0.00 73 1013.8
20260506083024 50 39 7.0 12.2 0.00 0.00 0.00 74 1013.6
20260506081536 49 25 9.6 13.9 0.00 0.00 0.00 75 1013.3
20260506073023 49 23 8.7 14.8 0.00 0.00 0.00 79 1012.4
20260506071527 49 56 9.6 16.5 0.00 0.00 0.00 80 1012.1
20260506061508 50 23 7.0 16.5 0.00 0.00 0.00 81 1012.6
20260506044518 50 32 8.7 13.9 0.00 0.00 0.00 79 1011.9
20260506043014 50 61 9.6 16.5 0.00 0.00 0.00 79 1011.9
20260506041520 50 22 9.6 16.5 0.00 0.00 0.00 79 1011.5
20260506040032 50 27 11.3 15.6 0.00 0.00 0.00 79 1011.8
20260506034508 50 34 11.3 18.2 0.00 0.00 0.00 79 1012.0
20260506033014 50 47 13.0 18.2 0.00 0.00 0.00 78 1011.5
20260506031520 51 23 9.6 17.4 0.00 0.00 0.00 78 1011.6
20260506030023 51 38 8.7 19.1 0.00 0.00 0.00 77 1011.1
20260506024524 51 31 11.3 18.2 0.00 0.00 0.00 76 1011.1